This is the latest recevied weather packets stored in our database for station/object KQ4OSL. If no packets are shown the sender has not sent any weather packets the latest 10 day(s).
| Time | Temp. | Humidity | Pressure | Rain* | Wind** | Luminosity | Snow |
|---|---|---|---|---|---|---|---|
| 1787631121 | 20° C | 97% | 1019.1 hPa | 0 mm | - | 0 W/m² | - |
| 1787630820 | 20° C | 96% | 1019.3 hPa | 0 mm | - | 0 W/m² | - |
| 1787630516 | 20° C | 97% | 1019.3 hPa | 0 mm | - | 0 W/m² | - |
| 1787630215 | 20° C | 97% | 1019.4 hPa | 0 mm | - | 0 W/m² | - |
| 1787629911 | 20° C | 96% | 1019.3 hPa | 0 mm | - | 0 W/m² | - |
| 1787629611 | 20° C | 96% | 1019.2 hPa | 0 mm | - | 0 W/m² | - |
| 1787629308 | 20° C | 96% | 1019.3 hPa | 0 mm | - | 0 W/m² | - |
| 1787629003 | 20° C | 95% | 1019.3 hPa | 0 mm | - | 0 W/m² | - |
| 1787628698 | 20.56° C | 94% | 1019.4 hPa | 0 mm | - | 0 W/m² | - |
| 1787628393 | 20.56° C | 92% | 1019.5 hPa | 0 mm | - | 0 W/m² | - |
| 1787628089 | 21.11° C | 91% | 1019.4 hPa | 0 mm | - | 0 W/m² | - |
| 1787627784 | 21.11° C | 89% | 1019.5 hPa | 0 mm | - | 0 W/m² | - |
| 1787627480 | 21.11° C | 91% | 1019.5 hPa | 0 mm | - | 0 W/m² | - |
| 1787627179 | 21.11° C | 91% | 1019.7 hPa | 0 mm | - | 0 W/m² | - |
| 1787626877 | 21.11° C | 90% | 1019.6 hPa | 0 mm | - | 0 W/m² | - |
| 1787626576 | 21.67° C | 90% | 1019.9 hPa | 0 mm | - | 0 W/m² | - |
| 1787626271 | 21.67° C | 89% | 1019.5 hPa | 0 mm | - | 0 W/m² | - |
| 1787625970 | 21.67° C | 89% | 1019.4 hPa | 0 mm | - | 0 W/m² | - |
| 1787625666 | 21.67° C | 92% | 1019.6 hPa | 0 mm | - | 0 W/m² | - |
| 1787625361 | 21.67° C | 92% | 1019.5 hPa | 0 mm | - | 0 W/m² | - |
| 1787625058 | 21.67° C | 92% | 1019.5 hPa | 0 mm | - | 0 W/m² | - |
| 1787624754 | 21.67° C | 92% | 1019.3 hPa | 0 mm | - | 0 W/m² | - |
| 1787624453 | 21.67° C | 93% | 1019.2 hPa | 0 mm | - | 0 W/m² | - |
| 1787624149 | 21.67° C | 93% | 1019.1 hPa | 0 mm | - | 0 W/m² | - |
| 1787623844 | 21.67° C | 93% | 1019.4 hPa | 0 mm | - | 0 W/m² | - |
* Rain latest hour (hover to see other rain measurements)
** Current wind speed in m/s (hover to see current wind gust speed)